Weather History for Burns, OR

Change the Weather History Date:

Thursday, October 24, 2013

  Actual Average Record
Temperature  
Mean Temperature 48 °F 42 °F  
Max Temperature 70 °F 58 °F 79 °F (1959)
Min Temperature 25 °F 26 °F 14 °F (2001)
Degree Days  
Heating Degree Days 17 23  
Month to date heating degree days 540 459  
Since 1 July heating degree days 832 878  
Cooling Degree Days 0 0  
Month to date cooling degree days 0 0  
Year to date cooling degree days 372 215  
Moisture  
Dew Point 28 °F    
Average Humidity 54    
Maximum Humidity 85    
Minimum Humidity 23    
Precipitation  
Precipitation 0.00 in 0.03 in 0.84 in (1940)
Month to date precipitation 0.04 0.56  
Year to date precipitation 5.97 7.98  
Sea Level Pressure  
Sea Level Pressure 30.13 in    
Wind  
Wind Speed 5 mph (WNW)    
Max Wind Speed 12 mph    
Max Gust Speed 13 mph    
Visibility 10 miles    
Events      
T = Trace of Precipitation, MM = Missing Value Source: NWS Daily Summary

Daily Weather History Graph

Daily Weather History Graph

Search for Another Location

Airport:

Trip Planner

Search our weather history database for the weather conditions in past years. The results will help you decide how hot, cold, wet, or windy it might be!

Date:

Astronomy

Oct. 24, 2013 Rise Set
Actual Time 7:21 AM PDT 5:57 PM PDT
Civil Twilight 6:52 AM PDT 6:26 PM PDT
Nautical Twilight 6:18 AM PDT 7:00 PM PDT
Astronomical Twilight 5:45 AM PDT 7:33 PM PDT
Moon 10:22 PM PDT (10/24) 12:30 PM PDT (10/24)
Length of Visible Light 11h 34m
Length of Day
10h 36m
Waning Gibbous, 70% of the Moon is Illuminated
Oct 24
Waning Gibbous
Oct 26
Last Quarter
Nov 3
New
Nov 9
First Quarter
Nov 17
Full

Hourly Weather History & Observations

Time (PDT) Temp. Windchill Dew Point Humidity Pressure Visibility Wind Dir Wind Speed Gust Speed Precip Events Conditions
12:53 AM 37.0 °F 30.4 °F 28.9 °F 73% 30.10 in 10.0 mi West 9.2 mph - N/A   Clear
1:53 AM 39.0 °F 32.8 °F 28.9 °F 67% 30.09 in 10.0 mi West 9.2 mph - N/A   Clear
2:53 AM 35.1 °F 28.6 °F 27.0 °F 72% 30.10 in 10.0 mi West 8.1 mph - N/A   Clear
3:53 AM 34.0 °F 28.0 °F 27.0 °F 75% 30.09 in 10.0 mi West 6.9 mph - N/A   Clear
4:53 AM 34.0 °F 26.6 °F 27.0 °F 75% 30.10 in 10.0 mi West 9.2 mph - N/A   Clear
5:53 AM 27.0 °F 21.6 °F 21.9 °F 81% 30.15 in 10.0 mi NNE 4.6 mph - N/A   Clear
6:53 AM 28.0 °F 20.8 °F 24.1 °F 85% 30.17 in 10.0 mi WNW 6.9 mph - N/A   Clear
7:53 AM 30.0 °F - 24.1 °F 79% 30.19 in 10.0 mi Calm Calm - N/A   Clear
8:53 AM 43.0 °F - 30.0 °F 60% 30.19 in 10.0 mi Calm Calm - N/A   Clear
9:53 AM 50.0 °F - 30.9 °F 48% 30.17 in 10.0 mi Variable 3.5 mph - N/A   Clear
10:53 AM 53.1 °F - 32.0 °F 45% 30.18 in 10.0 mi Calm Calm - N/A   Clear
11:53 AM 61.0 °F - 33.1 °F 35% 30.15 in 10.0 mi Calm Calm - N/A   Clear
12:53 PM 64.0 °F - 32.0 °F 30% 30.12 in 10.0 mi SSE 5.8 mph - N/A   Clear
1:53 PM 66.0 °F - 33.1 °F 29% 30.08 in 10.0 mi Calm Calm - N/A   Clear
2:53 PM 68.0 °F - 30.9 °F 25% 30.07 in 10.0 mi Variable 3.5 mph - N/A   Clear
3:53 PM 70.0 °F - 30.9 °F 24% 30.07 in 10.0 mi East 5.8 mph - N/A   Clear
4:53 PM 66.9 °F - 30.9 °F 26% 30.07 in 10.0 mi ENE 8.1 mph - N/A   Clear
5:53 PM 55.9 °F - 30.0 °F 37% 30.12 in 10.0 mi NE 8.1 mph - N/A   Clear
6:53 PM 48.0 °F - 28.0 °F 46% 30.15 in 10.0 mi NNE 4.6 mph - N/A   Clear
7:53 PM 42.1 °F 40.2 °F 28.0 °F 58% 30.17 in 10.0 mi West 3.5 mph - N/A   Clear
8:53 PM 43.0 °F 38.2 °F 27.0 °F 53% 30.15 in 10.0 mi WNW 8.1 mph - N/A   Clear
9:53 PM 42.1 °F 37.1 °F 27.0 °F 55% 30.16 in 10.0 mi West 8.1 mph - N/A   Clear
10:53 PM 36.0 °F 31.1 °F 25.0 °F 64% 30.17 in 10.0 mi WSW 5.8 mph - N/A   Clear
11:53 PM 37.0 °F 30.4 °F 25.0 °F 62% 30.16 in 10.0 mi West 9.2 mph - N/A   Clear